Location: G�ppingen
(48.7089°N, 9.6563°E)
Time: 22:58:14
(UTC+02:00)

ISS - Visible Passes

Search period start: 25 September 2020 00:00
Search period end: 05 October 2020 00:00
Orbit: 419 x 420 km, 51.6° (Epoch: 26 September)

Date Brightness Start Highest point End Pass type
(mag) Time Alt. Az. Time Alt. Az. Time Alt. Az.
25 Sep -3.1 20:58:07 10° WNW 21:01:25 49° N 21:02:08 40° NE visible
25 Sep -0.2 22:35:05 10° WNW 22:35:06 10° WNW 22:35:06 10° WNW visible
26 Sep -3.1 20:10:38 10° W 20:13:57 51° N 20:16:31 15° ENE visible
26 Sep -1.7 21:47:41 10° WNW 21:49:28 28° WNW 21:49:28 28° WNW visible
27 Sep -3.4 21:00:16 10° WNW 21:03:36 55° N 21:03:50 53° NNE visible
28 Sep -3.2 20:12:48 10° WNW 20:16:07 50° N 20:18:11 20° ENE visible
28 Sep -1.4 21:49:41 10° WNW 21:51:09 23° WNW 21:51:09 23° WNW visible
29 Sep -3.7 21:02:16 10° WNW 21:05:30 78° NNW 21:05:30 78° NNW visible
30 Sep -3.6 20:14:50 10° WNW 20:18:12 66° NNE 20:19:53 27° E visible
30 Sep -1.0 21:51:47 10° W 21:52:51 18° W 21:52:51 18° W visible
01 Oct -3.4 19:27:22 10° WNW 19:30:42 55° N 19:34:02 10° E visible
01 Oct -3.1 21:04:15 10° WNW 21:07:15 50° SW 21:07:15 50° SW visible
02 Oct -3.7 20:16:46 10° WNW 20:20:08 74° SSW 20:21:42 29° SE visible
02 Oct -0.6 21:54:20 10° W 21:54:40 11° WSW 21:54:40 11° WSW visible
03 Oct -3.8 19:29:17 10° WNW 19:32:41 83° NNE 19:36:03 10° ESE visible
03 Oct -1.9 21:06:27 10° W 21:09:10 24° SW 21:09:10 24° SW visible
04 Oct -2.5 20:18:46 10° W 20:21:53 35° SSW 20:23:45 19° SSE visible
